Location: *
(45.9500°N, 9.0833°E)
Time: 23:11:35
(UTC+00:00)

Vanguard 2 Rocket - Pass Details

Date: 18 June 2021
Orbit: 555 x 3325 km, 32.9° (Epoch: 03 August)

Event Time Altitude Azimuth Distance (km) Brightness Sun altitude
Rises 20:50:10 0° 253° (WSW) 7,243 11.7 -12.3°
Reaches altitude 10° 20:55:34 10° 248° (WSW) 6,052 11.2 -12.8°
Maximum altitude 21:12:08 47° 183° (S) 2,911 9.1 -14.4°
Drops below altitude 10° 21:22:32 10° 114° (ESE) 3,908 9.7 -15.3°
Enters shadow 21:22:53 - 113° (ESE) 3,986 9.7 -15.3°
Sets 21:25:14 0° 108° (ESE) 4,581 - -15.5°
